Weather History for Fort Collins, CO

Change the Weather History Date:

Saturday, March 17, 2012

  Actual Average Record
Temperature  
Mean Temperature 55 °F -  
Max Temperature 75 °F 53 °F 75 °F (2012)
Min Temperature 35 °F 26 °F 19 °F (2006)
Degree Days  
Heating Degree Days 10    
Growing Degree Days 5 (Base 50)    
Moisture  
Dew Point 20 °F    
Average Humidity 31    
Maximum Humidity 70    
Minimum Humidity 11    
Precipitation  
Precipitation 0.00 in - - ()
Sea Level Pressure  
Sea Level Pressure 29.71 in    
Wind  
Wind Speed 5 mph (East)    
Max Wind Speed 15 mph    
Max Gust Speed 18 mph    
Visibility 10 miles    
Events      
Averages and records for this station are not official NWS values.
T = Trace of Precipitation, MM = Missing Value Source: NWS Daily Summary

Daily Weather History Graph

Daily Weather History Graph

Search for Another Location

Airport:

Trip Planner

Search our weather history database for the weather conditions in past years. The results will help you decide how hot, cold, wet, or windy it might be!

Date:

Astronomy

Mar. 17, 2012 Rise Set
Actual Time 7:07 AM MDT 7:09 PM MDT
Civil Twilight 6:40 AM MDT 7:36 PM MDT
Nautical Twilight 6:08 AM MDT 8:08 PM MDT
Astronomical Twilight 5:36 AM MDT 8:40 PM MDT
Moon 4:11 AM MDT (3/17) 2:35 PM MDT (3/17)
Length of Visible Light 12h 56m
Length of Day
12h 02m
Waning Crescent, 22% of the Moon is Illuminated
Mar 17
Waning Crescent
Mar 22
New
Mar 30
First Quarter
Apr 6
Full
Apr 13
Last Quarter

Hourly Weather History & Observations

Time (MDT) Temp. Windchill Dew Point Humidity Pressure Visibility Wind Dir Wind Speed Gust Speed Precip Events Conditions
12:15 AM 48.2 °F - 15.8 °F 27% 29.78 in 10.0 mi SE 4.6 mph - N/A   Clear
12:35 AM 48.2 °F - 15.8 °F 27% 29.78 in 10.0 mi ESE 9.2 mph - N/A   Clear
12:55 AM 48.2 °F - 15.8 °F 27% 29.78 in 10.0 mi NNE 3.5 mph - N/A   Clear
1:15 AM 44.6 °F - 15.8 °F 31% 29.78 in 10.0 mi Calm Calm - N/A   Clear
1:35 AM 44.6 °F - 15.8 °F 31% 29.78 in 10.0 mi Calm Calm - N/A   Clear
1:55 AM 46.4 °F 42.9 °F 17.6 °F 32% 29.78 in 10.0 mi SSE 6.9 mph - N/A   Clear
2:15 AM 44.6 °F 42.2 °F 17.6 °F 34% 29.77 in 10.0 mi North 4.6 mph - N/A   Clear
2:35 AM 42.8 °F 39.3 °F 21.2 °F 42% 29.77 in 10.0 mi NNW 5.8 mph - N/A   Clear
2:55 AM 42.8 °F 41.1 °F 21.2 °F 42% 29.76 in 10.0 mi SSW 3.5 mph - N/A   Clear
3:15 AM 39.2 °F 33.6 °F 17.6 °F 42% 29.77 in 10.0 mi SW 8.1 mph - N/A   Clear
3:35 AM 39.2 °F 35.9 °F 19.4 °F 45% 29.76 in 10.0 mi ENE 4.6 mph - N/A   Clear
3:55 AM 41.0 °F - 21.2 °F 45% 29.77 in 10.0 mi Calm Calm - N/A   Clear
4:15 AM 39.2 °F 35.9 °F 19.4 °F 45% 29.76 in 10.0 mi North 4.6 mph - N/A   Clear
4:35 AM 37.4 °F 33.8 °F 17.6 °F 45% 29.76 in 10.0 mi North 4.6 mph - N/A   Clear
4:55 AM 37.4 °F 32.8 °F 17.6 °F 45% 29.76 in 10.0 mi WNW 5.8 mph - N/A   Clear
5:15 AM 39.2 °F - 24.8 °F 56% 29.75 in 10.0 mi Calm Calm - N/A   Clear
5:35 AM 41.0 °F 39.0 °F 21.2 °F 45% 29.75 in 10.0 mi North 3.5 mph - N/A   Clear
5:55 AM 35.6 °F 29.2 °F 17.6 °F 48% 29.74 in 10.0 mi North 8.1 mph - N/A   Clear
6:15 AM 41.0 °F - 21.2 °F 45% 29.76 in 10.0 mi Calm Calm - N/A   Clear
6:35 AM 39.2 °F - 19.4 °F 45% 29.76 in 10.0 mi Calm Calm - N/A   Clear
6:55 AM 41.0 °F 39.0 °F 19.4 °F 42% 29.77 in 10.0 mi SW 3.5 mph - N/A   Clear
7:15 AM 37.4 °F - 26.6 °F 65% 29.77 in 10.0 mi Calm Calm - N/A   Clear
7:35 AM 39.2 °F - 26.6 °F 61% 29.77 in 10.0 mi Calm Calm - N/A   Clear
7:55 AM 39.2 °F - 30.2 °F 70% 29.77 in 10.0 mi Calm Calm - N/A   Clear
8:15 AM 39.2 °F - 28.4 °F 65% 29.77 in 10.0 mi Calm Calm - N/A   Clear
8:35 AM 44.6 °F 43.1 °F 21.2 °F 39% 29.77 in 10.0 mi NNE 3.5 mph - N/A   Clear
8:55 AM 46.4 °F 44.3 °F 21.2 °F 37% 29.77 in 10.0 mi NNE 4.6 mph - N/A   Clear
9:15 AM 50.0 °F - 23.0 °F 35% 29.77 in 10.0 mi North 4.6 mph - N/A   Clear
9:35 AM 51.8 °F - 24.8 °F 35% 29.77 in 10.0 mi Calm Calm - N/A   Clear
9:55 AM 53.6 °F - 24.8 °F 33% 29.76 in 10.0 mi North 6.9 mph - N/A   Clear
10:35 AM 57.2 °F - 23.0 °F 27% 29.74 in 10.0 mi NNE 4.6 mph - N/A   Clear
10:55 AM 60.8 °F - 21.2 °F 22% 29.74 in 10.0 mi NNE 3.5 mph - N/A   Clear
11:15 AM 62.6 °F - 23.0 °F 22% 29.73 in 10.0 mi ENE 4.6 mph - N/A   Clear
11:35 AM 62.6 °F - 23.0 °F 22% 29.72 in 10.0 mi NNE 4.6 mph - N/A   Clear
11:55 AM 66.2 °F - 23.0 °F 19% 29.71 in 10.0 mi East 5.8 mph - N/A   Clear
12:15 PM 68.0 °F - 23.0 °F 18% 29.70 in 10.0 mi ESE 4.6 mph - N/A   Clear
12:35 PM 69.8 °F - 21.2 °F 16% 29.69 in 10.0 mi ESE 4.6 mph - N/A   Clear
12:55 PM 71.6 °F - 21.2 °F 15% 29.67 in 10.0 mi East 3.5 mph - N/A   Clear
1:15 PM 71.6 °F - 21.2 °F 15% 29.66 in 10.0 mi East 9.2 mph - N/A   Clear
1:35 PM 71.6 °F - 21.2 °F 15% 29.65 in 10.0 mi SSE 10.4 mph - N/A   Clear
1:55 PM 73.4 °F - 21.2 °F 14% 29.64 in 10.0 mi ESE 8.1 mph 18.4 mph N/A   Clear
2:15 PM 71.6 °F - 19.4 °F 14% 29.63 in 10.0 mi SE 12.7 mph 18.4 mph N/A   Clear
2:35 PM 73.4 °F - 19.4 °F 13% 29.61 in 10.0 mi ESE 12.7 mph 17.3 mph N/A   Clear
2:55 PM 73.4 °F - 21.2 °F 14% 29.60 in 10.0 mi ESE 12.7 mph - N/A   Clear
3:15 PM 71.6 °F - 19.4 °F 14% 29.59 in 10.0 mi ESE 15.0 mph - N/A   Clear
3:35 PM 71.6 °F - 19.4 °F 14% 29.58 in 10.0 mi SE 6.9 mph - N/A   Clear
3:55 PM 73.4 °F - 19.4 °F 13% 29.58 in 10.0 mi ESE 4.6 mph - N/A   Clear
4:15 PM 73.4 °F - 19.4 °F 13% 29.58 in 10.0 mi SE 4.6 mph - N/A   Clear
4:35 PM 73.4 °F - 19.4 °F 13% 29.57 in 10.0 mi East 4.6 mph - N/A   Clear
4:55 PM 75.2 °F - 19.4 °F 12% 29.56 in 10.0 mi SSE 4.6 mph - N/A   Clear
5:15 PM 75.2 °F - 17.6 °F 11% 29.55 in 10.0 mi SSE 8.1 mph - N/A   Clear
5:35 PM 75.2 °F - 17.6 °F 11% 29.55 in 10.0 mi SE 9.2 mph - N/A   Clear
5:55 PM 73.4 °F - 15.8 °F 11% 29.54 in 10.0 mi SSE 11.5 mph - N/A   Clear
6:15 PM 73.4 °F - 15.8 °F 11% 29.54 in 10.0 mi SSE 8.1 mph - N/A   Clear
6:35 PM 69.8 °F - 12.2 °F 11% 29.54 in 10.0 mi ESE 6.9 mph - N/A   Clear
6:55 PM 66.2 °F - 10.4 °F 11% 29.53 in 10.0 mi ESE 9.2 mph - N/A   Clear
7:15 PM 64.4 °F - 8.6 °F 11% 29.53 in 10.0 mi SE 12.7 mph - N/A   Clear
7:35 PM 62.6 °F - 8.6 °F 12% 29.53 in 10.0 mi SE 11.5 mph - N/A   Clear
8:15 PM 57.2 °F - 8.6 °F 14% 29.54 in 10.0 mi South 8.1 mph - N/A   Clear
8:35 PM 57.2 °F - 10.4 °F 16% 29.54 in 10.0 mi SSW 8.1 mph - N/A   Clear
8:55 PM 53.6 °F - 15.8 °F 22% 29.56 in 10.0 mi South 9.2 mph - N/A   Clear
9:15 PM 57.2 °F - 17.6 °F 21% 29.56 in 10.0 mi SW 6.9 mph - N/A   Clear
9:35 PM 55.4 °F - 17.6 °F 23% 29.57 in 10.0 mi SSW 5.8 mph - N/A   Clear
9:55 PM 51.8 °F - 17.6 °F 26% 29.57 in 10.0 mi South 8.1 mph - N/A   Clear
10:15 PM 50.0 °F - 19.4 °F 30% 29.57 in 10.0 mi SSE 6.9 mph - N/A   Clear
10:35 PM 53.6 °F - 17.6 °F 24% 29.58 in 10.0 mi NE 3.5 mph - N/A   Clear
10:55 PM 53.6 °F - 17.6 °F 24% 29.57 in 10.0 mi Calm Calm - N/A   Clear
11:15 PM 51.8 °F - 15.8 °F 24% 29.58 in 10.0 mi NNW 3.5 mph - N/A   Clear
11:35 PM 51.8 °F - 15.8 °F 24% 29.57 in 10.0 mi North 3.5 mph - N/A   Clear
11:55 PM 48.2 °F - 19.4 °F 32% 29.58 in 10.0 mi Calm Calm - N/A   Clear